[Iaude] MPEC G211: 2024 GD6 [a=1.55,e=0.62,i=15.4,H=20.4]
    mpec at cfa.harvard.edu 
    mpec at cfa.harvard.edu
       
    Mon Apr 15 01:37:34 EDT 2024
    
    
  
M.P.E.C. 2024-G211                               Issued 2024 April 15, 05:36 UT
     The Minor Planet Electronic Circulars contain information on unusual
         minor planets, routine data on comets and natural satellites,
         and occasional editorial announcements.  They are published
    on behalf of Division F of the International Astronomical Union by the
          Minor Planet Center, Smithsonian Astrophysical Observatory,
                          Cambridge, MA 02138, U.S.A.
			  
             Prepared using the Tamkin Foundation Computer Network
                              MPC at CFA.HARVARD.EDU
            URL https://www.minorplanetcenter.net/    ISSN 1523-6714
                                    2024 GD6                                    
Observations:
     K24G06D*1C2024 04 13.30023413 54 50.533+56 19 28.63         20.57GVEG211G96
     K24G06D 1C2024 04 13.30549113 54 48.935+56 19 04.37         20.48GVEG211G96
     K24G06D 1C2024 04 13.31073113 54 47.315+56 18 39.31         20.06GVEG211G96
     K24G06D 1C2024 04 13.31596813 54 45.691+56 18 16.60         20.42GVEG211G96
     K24G06D  C2024 04 13.32694213 54 42.170+56 17 25.54         20.5 GVEG211H01
     K24G06D  C2024 04 13.33097213 54 40.942+56 17 07.02         20.2 GVEG211H01
     K24G06D  C2024 04 13.34199913 54 37.552+56 16 16.29         20.4 GVEG211H01
     K24G06D  C2024 04 13.34803713 54 35.699+56 15 48.44         20.4 GVEG211H01
     K24G06D mC2024 04 13.40485413 54 18.536+56 11 27.10         20.09GVEG211I52
     K24G06D mC2024 04 13.40529813 54 18.364+56 11 25.19         20.53GVEG211I52
     K24G06D mC2024 04 13.40804713 54 17.644+56 11 12.01               VEG211I52
     K24G06D mC2024 04 13.41080213 54 16.729+56 10 59.41         20.15GVEG211I52
     K24G06D mC2024 04 13.41863813 54 14.396+56 10 22.98         20.29GVEG211I52
     K24G06D mC2024 04 13.42080113 54 13.730+56 10 12.97         20.42GVEG211I52
     K24G06D mC2024 04 13.42293413 54 13.100+56 10 03.00         20.39GVEG211I52
     K24G06D mC2024 04 13.42503913 54 12.445+56 09 53.60         20.31GVEG211I52
     K24G06D KB2024 04 13.86123 13 52 12.20 +55 36 38.6          20.2 RZEG211106
     K24G06D KB2024 04 13.87103 13 52 09.39 +55 35 54.5          20.4 RZEG211106
     K24G06D KB2024 04 13.88084 13 52 06.60 +55 35 11.0          19.8 RZEG211106
     K24G06D KB2024 04 13.89050 13 52 03.90 +55 34 27.1          20.6 RZEG211106
     K24G06D KB2024 04 13.90054 13 52 01.16 +55 33 41.3          20.5 GVEG211204
     K24G06D HB2024 04 13.93181 13 51 52.27 +55 31 20.6                VEG211204
     K24G06D 1C2024 04 13.95371 13 51 45.85 +55 29 40.7          20.8 VXEG211033
     K24G06D 1C2024 04 13.95446 13 51 45.60 +55 29 36.4          20.4 VXEG211033
     K24G06D 1C2024 04 13.95522 13 51 45.35 +55 29 33.3          20.9 VXEG211033
     K24G06D 1C2024 04 13.95597 13 51 45.19 +55 29 30.1          20.6 VXEG211033
     K24G06D 1C2024 04 14.07896 13 51 10.52 +55 20 11.4          20.5 VXEG211033
     K24G06D 1C2024 04 14.07971 13 51 10.30 +55 20 08.0          20.4 VXEG211033
     K24G06D 1C2024 04 14.08047 13 51 10.11 +55 20 04.3          20.6 VXEG211033
     K24G06D 1C2024 04 14.08122 13 51 09.89 +55 20 00.9          20.5 VXEG211033
     K24G06D 1C2024 04 14.08213 13 51 09.60 +55 19 56.8          20.6 VXEG211033
     K24G06D KB2024 04 14.09220113 51 07.03 +55 19 14.5          20.5 GXEG211I93
     K24G06D KB2024 04 14.09512913 51 06.23 +55 19 01.5          20.0 GXEG211I93
     K24G06D KB2024 04 14.09804713 51 05.36 +55 18 47.9          20.3 GXEG211I93
     K24G06D mC2024 04 14.18582013 50 44.675+55 12 12.60         20.24GVEG211I52
     K24G06D KC2024 04 14.18714413 50 43.49 +55 12 08.3          20.3 GVEG211H21
     K24G06D KC2024 04 14.18854213 50 43.08 +55 12 02.0          20.3 GVEG211H21
     K24G06D mC2024 04 14.19022913 50 43.429+55 11 53.27               VEG211I52
     K24G06D mC2024 04 14.19070013 50 43.339+55 11 50.50         20.23GVEG211I52
     K24G06D KC2024 04 14.19413213 50 41.51 +55 11 37.0          20.3 GVEG211H21
     K24G06D mC2024 04 14.19509013 50 42.097+55 11 31.78         20.09GVEG211I52
     K24G06D KC2024 04 14.19832513 50 40.32 +55 11 18.2          20.2 GVEG211H21
     K24G06D KC2024 04 14.86019 13 47 50.50 +54 21 49.2          20.3 GVEG211C82
     K24G06D KC2024 04 14.87069 13 47 47.76 +54 21 02.4          20.1 GVEG211C82
     K24G06D KC2024 04 14.87390 13 47 47.04 +54 20 49.7          19.7 GXEG211K83
     K24G06D KC2024 04 14.88023 13 47 45.46 +54 20 21.1          19.8 GXEG211K83
     K24G06D KC2024 04 14.90883 13 47 37.95 +54 18 15.2          19.3 GVEG211104
     K24G06D KC2024 04 14.91654 13 47 36.02 +54 17 41.1                VEG211104
     K24G06D KC2024 04 14.92406 13 47 34.06 +54 17 07.8                VEG211104
     K24G06D KC2024 04 14.99421713 47 15.86 +54 11 57.3          19.4 GVEG211L01
     K24G06D KC2024 04 14.99918913 47 14.60 +54 11 34.6          19.4 GVEG211L01
     K24G06D IC2024 04 15.01274513 47 11.09 +54 10 33.4          19.5 GVEG211L01
     K24G06D KC2024 04 15.20743713 46 24.90 +53 56 14.6          20.7 GVEG211H21
     K24G06D KC2024 04 15.21303013 46 23.46 +53 55 50.0          20.4 GVEG211H21
     K24G06D KC2024 04 15.21638513 46 22.59 +53 55 35.5          20.5 GVEG211H21
Observer details:
033 Karl Schwarzschild Observatory, Tautenburg.  Observers S. Melnikov, C.
    Hogner, F. Ludwig, M. Hartmann, B. Stecklum.  Measurer B. Stecklum.
    1.34-m f/3 Schmidt + CCD.
104 San Marcello Pistoiese.  Observers P. Bacci, M. Maestripieri.  Measurer P.
    Bacci.  0.60-m f/4.0 reflector + CCD.
106 Crni Vrh.  Observer H. Mikuz.  0.60-m f/3.3 reflector + CMO.
204 Schiaparelli Observatory.  Observer L. Buzzi.  0.84-m f/3.5 reflector +
    CMO.
C82 Osservatorio Astronomico Nastro Verde, Sorrento.  Observer N. Ruocco.
    0.35-m f/6.3  Schmidt-Cassegrain + CCD.
G96 Mt. Lemmon Survey.  Observer K. W. Wierzchos.  Measurers T. Beuden, V. F.
    Carvajal, D. Fay, J. B. Fazekas, D. C. Fuls, A. R. Gibbs, A. D. Grauer, H.
    Groeller, J. K. Hogan, R. A. Kowalski, S. M. Larson, G. J. Leonard, D.
    Rankin, R. L. Seaman, F. C. Shelly, K. W. Wierzchos.  1.5-m reflector +
    10K CCD.
H01 Magdalena Ridge Observatory, Socorro.  Observers W. H. Ryan, E. V. Ryan.
    Measurer W. H. Ryan.  2.4-m f/8.9 Ritchey-Chretien + CCD.
H21 Astronomical Research Observatory, Westfield.  Observer R. Holmes.
    Measurers T. Linder, R. Holmes, L. Horn.  0.76-m f/3.0 astrograph + CCD.
I52 Steward Observatory, Mt. Lemmon Station.  Observers V. F. Carvajal, D.
    Rankin.  Measurers T. Beuden, V. F. Carvajal, D. Fay, J. B. Fazekas, D. C.
    Fuls, A. R. Gibbs, A. D. Grauer, H. Groeller, J. K. Hogan, R. A. Kowalski,
    S. M. Larson, G. J. Leonard, D. Rankin, R. L. Seaman, F. C. Shelly, K. W.
    Wierzchos.  1.0-m prime focus + CCD.
I93 St Pardon de Conques.  Observer F. Losse.  0.40-m f/3.7 reflector + CCD.
K83 Beppe Forti Astronomical Observatory, Montelupo.  Observers M. Tombelli,
    F. Cheli, A. Squilloni, M. Iozzi.  Measurers M. Tombelli, F. Bernardi, F.
    Cheli, M. Iozzi, A. Squilloni.  0.40-m f/8 Ritchey-Chretien + CCD.
L01 Visnjan Observatory, Tican.  Observer K. Korlevic.  1.0-m f/2.9 reflector
    + CCD.
Orbital elements:
2024 GD6                                                 Earth MOID = 0.2550 AU
Epoch 2024 Mar. 31.0 TT = JDT 2460400.5                 MPC                     
M  28.67476              (2000.0)            P               Q                  
n   0.51064614     Peri.  346.71953     +0.00829945     -0.96592010             
a   1.5502058      Node   102.34583     +0.93995040     -0.08074391             
e   0.6208546      Incl.   15.35695     +0.34121015     +0.24592433             
P   1.93           H   20.45          G   0.15           U   9                  
Residuals in seconds of arc
240413 G96  0.0   0.1+    240413 106  0.6+  0.2-    240414 I52  0.2+  0.6-
240413 G96  0.2+  0.1-    240413 204  0.3+  0.3-    240414 H21  0.1-  0.0
240413 G96 (0.1+  1.2-)   240413 204  0.6+  0.4-    240414 I52  0.0   0.1+
240413 G96  0.0   0.1+    240413 033  0.2+  0.4+    240414 H21  0.3-  0.0
240413 H01  0.0   0.0     240413 033  0.1-  0.5-    240414 C82 (0.1-  1.4-)
240413 H01  0.1+  0.0     240413 033  0.4-  0.2-    240414 C82 (0.3-  2.1-)
240413 H01  0.0   0.0     240413 033  0.1+  0.0     240414 K83  0.3+  0.9+
240413 H01  0.1-  0.1-    240414 033  0.0   0.0     240414 K83  0.8+  0.1+
240413 I52  0.1-  0.1+    240414 033  0.1-  0.1+    240414 104  0.2-  0.2+
240413 I52  0.4-  0.2+    240414 033  0.1+  0.2-    240414 104  0.3+  0.1+
240413 I52  0.5+  0.2-    240414 033  0.0   0.2-    240414 104  0.2+  0.0
240413 I52  0.2-  0.0     240414 033  0.3-  0.1-    240414 L01  0.3+  0.7+
240413 I52  0.1+  0.1-    240414 I93  0.1-  0.3-    240414 L01  0.5+  0.1+
240413 I52  0.0   0.1-    240414 I93  0.1+  0.1+    240415 L01  0.2+  0.7-
240413 I52  0.1+  0.2-    240414 I93  0.4-  0.2-    240415 H21  0.2+  0.1-
240413 I52  0.1-  0.2+    240414 I52  0.1+  0.2-    240415 H21  0.0   0.1-
240413 106  0.2+  0.0     240414 H21  0.2+  0.1+    240415 H21  0.2-  0.1+
240413 106  0.1+  0.2-    240414 H21  0.0   0.0
240413 106  0.1+  0.3+    240414 I52  0.1-  0.0
Ephemeris:
2024 GD6                 a,e,i = 1.55, 0.62, 15                  q = 0.5878
Date    TT    R. A. (2000) Decl.     Delta      r    Elong.  Phase     V
2024 03 16    22 31 16.3 +56 48 40   0.2630  0.8945    60.4   104.8    21.2
...
2024 03 31    16 41 39.6 +73 02 19   0.2832  1.0580    94.2    70.3    20.3
...
2024 04 08    14 30 11.2 +63 21 20   0.3258  1.1434   107.7    56.5    20.4
...
2024 04 14    13 51 33.1 +55 26 13   0.3685  1.2059   115.0    48.9    20.5
2024 04 15    13 47 14.9 +54 11 31   0.3764  1.2162   116.0    47.9    20.6
2024 04 16    13 43 21.3 +52 58 23   0.3845  1.2265   116.9    46.9    20.6
...
2024 04 22    13 26 22.8 +46 13 16   0.4373  1.2869   121.1    42.0    20.8
...
2024 04 30    13 14 11.6 +38 36 58   0.5178  1.3649   123.8    37.8    21.2
...
2024 05 15    13 06 57.8 +27 38 00   0.6958  1.5029   122.3    34.6    22.0
A. U. Tomatic                (C) Copyright 2024 MPC           M.P.E.C. 2024-G211
    
    
More information about the Iaude
mailing list